Theta_e
304 303 303 302 302 301 300 301 301 301 302 301 304 312 314 314 314 312 308 304 307 319 321 318 323 317 306 306 309 310 310 308 307 307 306 306 306 306 307 306 305 305 304 305 306 304 304 306 306 305 307 306 303 300 298 299 300 300 303 304 300 300 302 303 308 310 305 301 300 299 299 301 303 302 302 305 307 304 302 304 305 304 303 302 302 304 301
303 303 302 301 301 300 300 301 300 301 302 300 304 312 314 312 313 313 307 303 311 316 313 317 320 312 307 310 309 307 308 309 309 307 307 306 304 304 307 306 304 305 305 305 306 305 302 303 305 303 304 305 300 298 298 298 301 301 301 302 300 300 303 305 308 311 310 308 307 306 305 303 302 302 302 303 304 304 303 303 304 304 302 299 300 306 304
302 302 302 300 300 299 300 300 300 301 300 299 304 310 311 311 313 315 311 305 309 314 312 313 313 310 311 310 306 307 308 307 307 307 306 305 303 303 305 306 304 304 305 305 307 307 303 302 304 302 303 304 300 299 299 299 301 300 298 299 300 302 305 304 305 306 307 308 308 308 306 302 302 303 302 301 302 302 302 302 303 303 301 299 299 304 302
302 302 300 299 299 299 299 299 299 300 300 300 305 307 308 311 314 319 323 317 312 311 312 314 312 309 310 309 306 307 308 307 305 305 306 305 304 304 304 303 303 304 306 307 308 309 305 302 304 304 304 304 301 299 299 299 301 300 299 299 299 302 305 304 304 305 305 306 306 304 302 300 302 302 301 302 302 300 301 302 301 300 300 300 299 297 296
301 300 299 299 299 299 299 299 298 300 300 300 305 310 310 311 312 312 314 318 317 314 314 317 313 306 307 308 306 305 307 308 306 305 306 305 304 305 304 304 304 304 306 307 307 308 306 303 303 303 303 303 301 298 298 300 301 300 299 299 299 303 306 303 302 304 305 305 303 301 300 299 298 298 298 301 301 300 301 301 298 297 298 300 298 294 293
299 299 299 299 299 299 299 299 298 300 300 299 307 315 312 309 311 306 303 309 314 310 309 313 314 309 307 307 306 307 309 307 304 304 305 305 304 304 305 306 305 304 305 305 305 307 307 305 304 301 300 302 303 301 299 300 301 299 298 299 300 303 304 302 301 302 304 303 301 300 298 296 295 294 295 296 297 297 297 296 295 294 295 296 294 293 292
299 299 299 298 299 299 298 299 298 299 300 300 307 314 312 311 312 306 303 307 310 305 304 309 314 312 308 307 306 307 309 308 304 302 304 307 305 303 304 306 306 307 306 304 305 306 305 304 304 301 299 301 303 302 301 300 300 300 299 299 298 300 304 305 301 302 304 303 303 301 296 294 293 293 293 292 292 293 293 293 293 292 293 293 292 292 291
299 299 299 298 298 298 298 299 298 299 301 303 306 310 312 315 314 309 309 311 308 306 305 308 313 311 307 308 307 306 309 309 305 303 303 306 306 305 305 306 308 308 306 304 305 305 303 303 302 300 300 301 302 300 299 299 300 301 300 299 297 297 302 304 301 303 306 303 301 298 293 293 292 292 292 291 291 292 292 292 292 292 293 292 291 292 291
299 298 299 298 298 299 298 299 299 299 301 304 308 308 306 306 305 305 313 314 307 307 307 307 312 312 309 309 307 306 308 306 305 305 303 304 306 306 305 306 308 308 306 307 307 304 303 303 301 299 300 300 300 298 298 298 300 302 301 300 300 299 302 304 302 304 306 302 298 295 293 294 294 292 291 291 291 291 291 291 291 291 292 292 290 290 288
298 299 299 299 299 299 299 299 299 299 300 303 309 308 305 305 304 304 311 313 307 307 310 310 311 308 306 308 306 305 306 306 305 305 304 305 306 304 303 305 306 307 308 308 305 302 301 300 298 298 298 299 299 298 299 298 298 301 302 300 301 300 300 303 303 303 305 303 299 296 295 298 298 293 291 291 290 290 290 291 289 288 289 290 288 287 286
299 299 300 300 300 299 299 300 299 299 300 302 308 307 304 307 310 309 314 315 308 307 310 310 311 307 305 306 306 304 307 309 307 303 303 306 304 302 304 304 304 306 306 301 297 297 297 297 297 298 298 300 300 300 301 299 297 299 300 299 301 301 300 302 301 301 306 306 300 298 301 301 296 291 290 291 291 289 290 290 287 285 286 287 286 286 285
300 300 300 300 300 299 300 299 299 299 298 300 305 306 302 301 306 310 316 315 310 310 310 305 305 308 306 305 305 305 306 307 306 302 302 305 304 303 304 304 304 304 300 295 295 296 296 297 298 299 299 301 301 301 301 300 298 299 298 298 300 301 300 302 301 300 305 305 302 304 306 299 292 289 290 290 290 290 289 289 286 285 285 285 285 285 284
300 300 300 300 300 299 300 299 298 299 299 299 302 303 300 300 306 312 316 314 308 308 308 303 302 305 306 305 305 306 305 303 303 303 304 304 304 304 304 303 303 301 296 295 296 297 299 300 299 298 299 299 300 301 300 299 299 300 299 298 298 298 299 300 301 302 303 302 301 302 299 293 290 290 290 289 290 290 289 288 286 284 285 285 284 284 283
299 299 300 300 300 299 299 299 298 298 299 300 300 301 299 301 306 311 313 314 307 302 303 305 305 305 307 307 306 306 306 303 301 303 304 303 304 306 303 300 299 296 294 295 297 298 300 301 301 301 301 299 301 302 300 299 298 299 299 298 297 298 299 299 300 302 301 300 300 299 295 293 292 290 289 289 289 289 288 289 287 284 284 284 283 283 282
299 299 300 299 300 300 298 299 299 299 299 299 300 301 300 300 303 306 308 312 311 305 304 306 306 306 309 308 305 306 308 307 303 302 302 301 301 302 299 297 296 294 293 296 298 299 300 301 303 305 304 302 301 301 300 299 298 297 298 298 297 296 298 299 300 300 300 299 299 298 297 296 292 288 287 288 289 288 288 289 288 285 283 283 282 281 281
299 299 300 299 299 300 299 299 299 298 299 300 299 300 300 300 301 303 305 310 312 309 303 296 294 299 306 307 305 303 303 305 305 304 306 306 304 302 297 294 294 294 295 298 299 299 301 302 302 303 303 302 300 300 300 300 299 298 298 298 296 295 296 299 301 299 297 297 297 298 299 296 289 285 286 287 288 287 287 288 288 285 282 282 281 280 280
299 299 299 299 299 299 299 299 300 299 300 300 300 300 300 301 301 302 306 313 313 305 295 289 290 297 305 308 308 304 301 302 303 303 305 306 305 304 300 295 294 295 298 301 302 301 303 304 304 305 304 301 299 300 300 299 299 297 296 297 297 297 297 298 297 296 295 296 297 297 296 292 286 285 285 286 286 287 288 289 288 284 282 281 280 279 279
299 298 299 298 299 299 298 298 299 299 299 300 301 301 300 301 302 301 306 314 315 304 291 287 292 299 301 302 304 302 299 301 303 304 305 305 303 303 302 300 299 297 296 300 303 303 304 304 303 303 303 300 299 300 299 298 297 294 294 295 295 295 296 295 294 294 295 295 295 295 293 288 284 284 285 286 286 288 288 288 285 283 281 280 279 278 279
298 298 298 298 298 298 299 299 298 298 298 299 300 300 300 301 301 300 304 311 313 305 293 288 291 294 292 292 296 298 298 298 301 304 307 307 302 299 299 298 298 298 297 299 302 302 303 303 301 301 303 302 299 297 295 294 294 293 293 294 293 292 294 294 293 293 294 293 293 294 292 287 284 284 285 286 287 287 286 284 282 281 280 279 278 278 278
298 298 298 298 298 298 298 298 298 299 298 299 300 299 299 299 300 300 303 304 301 297 291 288 289 290 289 290 294 298 300 300 301 302 304 305 302 301 302 301 299 300 301 301 302 302 301 302 301 300 302 300 297 296 294 292 291 291 292 293 291 290 292 293 292 292 293 293 293 294 293 287 284 284 286 284 284 284 282 280 280 280 279 278 277 277 277
299 298 298 298 298 298 298 298 298 299 299 299 300 298 297 298 298 300 300 299 299 299 294 289 287 287 287 288 288 291 294 295 296 297 299 301 300 300 301 301 299 299 298 297 300 302 300 300 301 301 300 299 298 298 296 294 292 291 291 292 290 289 290 292 292 291 292 292 291 291 289 286 284 284 284 281 280 280 280 279 279 279 278 277 276 276 276
298 298 298 298 298 298 298 297 298 299 299 300 299 298 297 296 296 298 299 297 296 295 292 288 286 286 286 286 286 287 288 288 289 290 293 298 302 299 299 301 298 296 296 296 299 302 301 299 300 300 299 298 296 295 295 295 295 292 291 292 291 288 287 288 290 290 288 288 288 288 286 284 284 284 282 279 279 280 280 279 278 278 278 277 276 276 275
298 298 298 298 297 298 298 297 298 298 298 299 299 297 297 297 295 297 297 295 290 289 289 287 288 289 287 286 287 286 286 286 287 286 287 294 301 299 296 298 297 294 295 296 297 299 300 298 298 300 298 295 295 295 294 294 293 291 291 290 288 286 285 286 288 287 285 286 286 285 285 284 283 283 281 279 279 279 279 278 277 277 277 277 276 275 274
298 298 298 297 297 298 298 297 298 298 298 298 298 297 297 297 297 298 297 295 294 296 295 290 290 292 290 288 287 286 286 286 286 286 285 288 296 299 297 294 293 294 298 296 292 293 296 296 297 300 297 293 294 296 294 292 290 290 290 288 286 286 285 285 286 285 285 286 286 284 283 283 283 283 281 278 278 279 278 277 277 276 276 276 274 273 273
298 297 297 297 297 297 297 298 297 297 298 297 297 297 297 297 297 299 299 299 301 306 305 297 292 291 289 288 288 287 287 286 285 286 286 285 289 295 296 291 290 293 295 292 291 294 297 295 296 298 296 293 294 293 291 291 290 289 288 287 286 286 286 285 284 283 284 286 285 283 282 282 282 281 279 278 278 278 277 277 277 276 275 274 273 273 272
297 297 297 297 297 297 297 297 297 297 297 297 297 297 297 297 296 297 299 301 301 305 306 300 293 290 289 289 288 287 287 287 286 286 287 286 286 288 289 288 289 291 290 290 292 296 297 295 294 295 294 292 293 291 288 288 288 287 286 285 284 285 285 284 283 283 283 284 284 282 282 282 282 281 279 277 277 277 276 276 276 275 274 273 272 272 272
297 297 297 297 297 297 297 297 297 297 297 297 297 297 297 297 296 296 298 300 301 305 307 301 294 292 290 289 289 288 288 288 288 288 288 288 288 288 288 288 290 292 293 295 295 295 296 295 293 292 292 291 292 290 288 287 286 286 285 284 283 284 284 283 283 282 282 283 282 281 281 281 281 279 278 277 277 276 275 275 274 273 273 272 271 271 271
297 297 297 297 297 297 298 298 297 297 296 297 297 297 297 297 297 297 298 299 301 303 304 299 295 293 293 291 290 290 289 289 289 290 290 289 290 290 289 289 291 294 297 298 296 295 295 294 292 291 292 292 291 289 287 287 287 286 284 283 283 283 283 283 283 282 282 282 281 280 279 279 279 278 277 277 276 275 274 274 273 272 272 272 271 270 270
296 296 296 297 297 298 299 299 298 296 297 297 297 298 298 297 297 297 298 298 298 298 299 298 296 294 294 293 292 290 290 290 290 290 291 291 291 291 291 291 292 294 295 295 295 294 292 292 292 291 290 290 291 289 288 288 288 285 283 283 283 283 283 283 282 281 281 281 280 278 277 277 276 276 276 276 275 274 273 273 272 272 271 271 270 269 269
297 297 296 297 298 298 299 299 298 297 297 296 297 301 305 302 298 297 297 298 298 299 301 303 300 294 292 292 291 291 290 290 291 291 291 291 291 291 292 292 291 292 294 295 294 293 292 291 291 291 289 289 292 291 289 288 287 284 282 282 282 282 283 282 281 281 280 280 278 277 276 276 276 276 276 276 274 273 272 272 271 271 270 269 269 269 268
298 297 296 297 299 299 299 299 298 298 298 298 300 306 309 304 299 296 297 298 298 299 301 301 297 294 294 293 291 290 290 290 291 291 291 291 292 291 292 293 291 292 294 295 294 293 292 290 290 290 290 291 293 291 289 288 287 285 283 282 282 281 281 281 280 280 279 277 276 276 275 276 276 276 276 275 273 272 271 271 271 270 269 269 268 268 268
300 297 296 297 298 298 298 298 297 298 299 298 299 301 301 299 297 296 297 298 298 300 305 305 298 297 299 296 291 290 290 290 290 291 291 292 292 292 292 292 292 291 293 294 294 292 291 290 290 289 289 289 290 289 287 288 288 285 282 281 281 281 280 280 280 279 277 276 275 275 275 275 275 275 275 274 272 271 271 270 269 269 268 268 267 267 267
300 297 296 297 298 298 298 298 297 297 297 297 297 297 296 297 297 296 297 299 297 297 305 308 303 299 298 296 292 291 292 292 292 293 293 291 291 292 293 293 292 292 292 292 293 292 290 291 291 290 288 288 287 287 286 285 285 283 281 281 281 281 280 279 279 278 276 275 275 275 274 274 275 274 273 272 271 270 270 269 268 268 267 267 266 266 266
300 298 297 297 297 298 298 298 298 298 297 296 296 296 296 296 297 297 298 298 297 297 300 303 303 301 299 298 296 293 292 293 296 297 295 292 291 292 295 295 295 295 292 291 291 292 291 291 291 290 289 288 288 289 287 284 282 281 281 280 280 280 279 278 278 277 275 275 275 274 274 274 274 273 272 271 270 270 269 268 267 267 266 266 266 266 266
300 298 297 297 297 298 298 298 298 298 297 297 296 296 296 296 296 297 297 297 300 303 300 298 300 301 299 301 301 296 291 293 295 295 294 294 292 291 294 297 297 295 292 291 292 292 290 289 290 291 288 287 289 290 287 283 282 281 280 280 280 279 278 277 277 276 275 274 274 274 274 274 272 271 271 270 269 269 268 267 266 266 265 265 265 265 264
299 298 297 298 298 298 298 298 298 298 298 298 297 297 297 296 295 296 295 295 298 301 300 299 299 297 295 297 299 294 291 294 296 294 294 295 293 292 295 298 296 293 291 292 292 290 288 288 290 290 288 289 290 288 284 282 282 280 279 280 279 278 277 276 275 274 274 273 273 273 273 273 271 270 270 269 269 268 267 266 266 265 264 264 264 264 264
298 298 298 298 298 299 298 297 296 297 298 297 297 297 298 298 298 297 295 295 295 295 296 299 298 293 291 294 295 293 293 295 295 294 296 296 294 294 296 298 296 294 294 293 291 289 288 288 290 290 289 288 287 284 281 281 281 279 279 280 278 276 276 275 274 273 273 273 273 273 273 272 270 269 268 268 268 267 266 265 265 265 264 264 263 263 263
299 298 297 298 301 304 303 298 296 297 297 297 298 299 298 298 301 300 298 297 295 294 294 295 294 291 292 295 295 292 292 294 295 295 295 295 294 295 296 297 296 295 294 291 288 287 288 288 289 289 287 285 283 282 281 280 279 279 279 278 277 275 275 274 273 273 272 272 272 272 271 270 269 268 268 267 267 267 266 265 265 264 264 263 263 263 262
299 298 298 300 302 303 302 298 296 297 297 297 299 301 301 300 303 303 300 298 297 295 294 294 292 291 292 295 295 293 290 291 295 296 295 294 295 295 295 295 294 293 293 291 288 287 289 289 287 287 287 284 282 281 281 280 279 279 278 276 276 275 274 273 273 273 272 272 272 271 269 268 268 267 267 267 267 266 265 265 264 264 263 263 262 262 262
299 299 300 301 300 298 297 297 296 297 298 299 301 302 302 301 300 298 299 300 298 294 293 293 292 290 290 291 293 293 290 290 292 293 293 294 294 293 293 294 292 291 293 293 289 288 290 290 288 288 289 286 282 281 280 279 279 278 277 276 275 274 273 272 272 272 272 272 272 270 268 268 267 267 267 267 266 265 265 264 264 263 262 262 262 262 262
299 299 301 301 299 297 297 298 297 297 300 303 304 302 300 299 297 296 298 300 298 293 291 291 293 293 292 290 291 292 291 289 289 290 291 294 293 291 292 293 291 292 293 291 288 288 290 290 290 290 288 284 281 280 280 279 278 277 276 275 274 273 272 272 272 272 272 271 270 268 268 267 267 266 266 266 265 265 264 263 263 262 262 262 262 261 261
299 299 300 300 298 298 299 300 299 299 301 304 304 300 298 297 298 297 296 295 294 292 291 290 291 291 291 288 288 289 289 288 289 290 292 293 293 292 292 292 292 293 292 288 287 289 290 291 294 293 286 281 280 280 279 279 278 277 275 274 273 272 272 272 272 272 271 270 268 267 267 267 266 266 266 265 264 264 263 263 262 262 262 261 261 261 260
299 298 299 299 298 299 302 302 300 300 302 302 300 298 298 298 298 296 295 294 292 291 291 290 289 289 290 288 287 288 288 288 289 290 291 291 291 291 292 294 294 292 289 287 288 291 292 293 294 290 283 280 280 280 278 278 277 276 274 273 273 272 271 271 271 271 270 268 268 267 266 266 266 266 265 264 264 263 263 262 262 261 261 261 261 260 260
298 298 299 301 301 301 303 303 299 298 299 299 298 297 297 298 298 298 297 296 293 291 290 289 288 289 291 290 288 289 290 289 289 290 289 289 290 291 293 294 292 289 288 289 291 291 291 291 289 285 281 280 280 279 278 277 276 275 274 273 272 272 271 271 271 270 269 268 267 267 266 266 265 265 264 264 263 262 262 262 261 261 261 260 260 260 259
301 302 305 308 304 300 301 303 301 298 297 298 299 300 298 296 299 300 296 292 289 289 289 288 286 287 290 289 287 288 290 290 290 290 289 288 290 291 291 290 289 288 290 292 292 290 291 290 286 282 281 280 279 278 277 276 275 274 274 273 272 271 271 271 270 269 268 267 267 266 265 265 265 264 263 263 262 262 261 261 261 261 260 260 259 259 259
301 302 306 309 305 300 301 303 302 299 297 297 299 301 299 298 299 296 290 287 288 289 288 286 285 287 290 290 289 289 290 290 289 289 287 288 291 291 287 286 288 290 290 292 293 293 293 291 285 282 281 280 278 277 276 275 274 274 273 272 271 271 270 270 270 269 267 267 266 265 265 264 264 263 263 262 262 261 261 261 260 260 260 259 259 259 258
302 300 304 309 306 301 301 301 298 296 296 296 296 296 294 293 292 289 284 283 285 286 285 285 285 285 287 289 289 290 291 289 288 288 287 288 290 289 287 288 291 291 289 289 294 296 293 288 283 281 280 279 277 277 275 274 273 273 271 271 271 270 270 270 270 268 267 266 266 265 264 264 263 262 262 262 261 261 261 261 260 260 260 259 259 258 258
304 301 303 307 305 301 300 298 295 293 293 292 292 290 287 287 290 289 284 281 282 283 284 286 287 287 287 287 288 289 290 289 288 288 287 287 288 289 289 291 293 291 288 290 293 293 290 285 282 280 279 278 277 276 275 274 273 271 271 271 271 270 269 269 269 267 266 266 265 264 263 263 262 262 261 261 261 261 261 261 260 260 259 259 258 258 258
299 300 301 301 299 297 295 294 295 296 294 290 289 289 288 289 292 289 283 280 282 283 282 283 285 288 290 289 288 289 290 289 288 288 288 289 291 290 289 290 292 292 291 292 292 289 286 283 281 280 279 278 276 275 274 273 272 271 270 270 270 269 269 268 268 267 266 266 264 263 263 262 262 262 261 261 261 261 261 261 260 260 259 259 258 258 258
295 299 300 297 297 297 294 293 296 299 296 292 292 292 291 292 291 287 282 281 282 282 282 283 285 288 289 289 290 291 290 288 287 288 290 292 292 289 287 289 293 295 294 291 288 285 283 282 280 280 279 277 275 274 273 273 272 271 270 270 269 269 268 268 267 267 266 265 264 263 262 262 262 261 261 261 261 260 261 261 260 259 259 259 258 258 258
297 297 295 292 294 297 295 295 299 301 300 299 298 294 290 291 291 285 281 280 282 285 288 289 288 288 289 291 291 290 288 286 286 288 289 288 288 288 290 293 296 296 293 288 284 283 282 280 278 279 278 276 274 274 273 272 271 270 270 269 269 268 268 267 267 266 266 265 263 262 262 262 262 261 261 261 261 260 261 261 260 259 259 259 259 258 258
302 299 293 289 289 292 293 295 298 299 297 297 295 290 287 289 288 282 279 281 285 289 291 289 287 289 291 291 289 288 287 287 289 290 289 287 286 290 296 297 295 291 288 285 283 282 281 278 276 276 276 275 273 273 272 271 271 270 269 269 268 268 267 267 266 266 265 264 263 262 262 262 261 261 261 261 261 260 260 260 260 259 259 259 258 258 258
Wind_Speed
14 16 17 18 18 18 18 19 19 20 20 17 14 8 3 3 1 3 12 15 5 5 4 4 3 2 1 0 0 0 1 1 1 2 2 1 1 2 2 0 0 0 1 1 1 1 1 1 1 0 0 1 2 2 4 4 2 1 1 2 2 1 2 1 4 4 3 4 4 3 1 2 3 2 3 2 2 2 3 4 3 1 2 2 1 1 3
15 16 17 18 18 18 17 16 16 17 18 19 14 5 2 0 3 2 11 14 5 5 2 1 2 2 1 2 2 2 1 1 0 1 1 1 1 1 1 0 0 1 1 1 1 2 0 1 1 0 0 0 1 2 4 3 2 1 1 1 2 2 0 2 3 5 6 6 5 5 4 3 3 1 3 3 4 4 2 1 2 1 2 1 1 4 3
15 16 17 18 17 17 15 14 14 14 15 16 12 3 1 2 1 2 7 13 9 4 3 4 2 1 2 3 2 2 2 0 1 1 1 1 1 1 1 1 0 1 0 0 2 2 1 1 2 2 1 1 1 2 4 2 1 0 2 2 1 1 1 2 3 0 2 3 3 3 3 3 2 2 4 4 5 5 3 1 3 1 2 2 1 4 4
15 16 17 16 15 15 14 13 13 12 13 14 10 3 1 2 2 3 6 8 8 3 1 4 4 1 2 2 2 2 1 2 1 1 0 1 1 1 1 1 1 1 2 2 3 2 1 1 2 3 2 2 1 2 3 1 1 2 3 2 1 2 0 1 4 5 4 5 6 3 1 3 3 3 5 4 3 4 4 4 2 1 1 3 2 3 7
16 16 15 14 13 13 13 13 13 11 12 13 8 3 3 2 1 1 2 4 4 4 4 5 3 1 3 2 1 2 2 3 1 1 0 0 1 0 0 1 1 1 2 2 2 3 2 1 1 1 2 2 2 2 2 2 1 2 1 1 3 4 2 1 2 4 6 6 7 4 3 2 2 4 5 5 6 6 7 5 2 1 1 3 4 6 9
15 14 14 13 13 13 12 12 12 11 10 10 6 2 2 2 1 1 1 1 1 3 3 3 4 3 2 3 0 2 3 2 1 1 1 1 1 1 1 3 3 1 0 1 1 4 5 2 1 1 1 3 4 3 2 2 1 2 2 1 4 4 2 3 1 4 6 7 8 3 4 4 5 7 6 6 8 8 7 3 3 4 1 5 6 8 7
14 13 13 13 13 13 12 11 11 10 9 8 5 3 1 2 1 1 1 1 2 1 2 2 4 4 2 2 1 1 2 1 2 1 2 3 3 1 1 3 5 4 1 2 0 3 3 2 2 1 1 3 3 3 2 2 1 3 3 3 2 3 2 3 2 4 7 7 5 3 8 6 7 8 7 7 7 8 6 3 4 5 3 5 6 8 3
13 13 13 13 13 13 12 11 10 9 8 5 5 4 1 2 1 1 3 2 1 1 1 2 4 3 2 2 1 1 2 1 2 1 2 1 3 2 1 4 6 5 2 3 2 3 2 3 4 1 1 3 2 1 1 2 3 4 2 2 2 1 1 2 1 2 6 5 6 8 9 9 9 9 8 8 9 9 7 6 6 5 4 5 7 6 2
13 13 13 13 13 13 12 11 9 7 6 4 4 3 2 2 2 2 4 2 2 1 1 2 4 2 3 1 1 1 1 1 1 1 1 1 1 1 1 4 5 4 2 4 2 4 4 4 5 4 2 2 1 1 1 1 3 4 1 2 3 2 2 3 4 3 5 2 7 8 8 10 10 9 9 8 9 8 6 5 5 4 4 6 7 5 4
14 14 14 14 13 12 11 9 8 7 5 4 3 2 2 2 0 1 4 1 1 1 2 3 3 0 1 1 1 1 2 2 1 1 1 1 1 2 3 1 2 2 2 1 3 4 3 4 4 3 2 2 1 1 0 2 1 1 0 1 1 2 1 2 3 2 4 2 3 6 5 4 4 6 6 4 6 7 6 3 5 5 3 4 4 4 6
15 14 14 13 12 11 10 9 8 6 5 5 5 3 3 3 1 2 5 3 2 1 2 3 3 1 0 0 1 2 2 3 3 1 0 2 1 2 2 2 1 0 1 1 1 2 3 4 4 2 1 2 3 3 4 4 2 1 2 1 1 3 3 1 1 1 4 7 4 4 3 0 2 1 5 3 4 8 9 3 5 5 4 3 3 5 7
14 14 14 13 12 11 10 9 8 6 5 5 6 5 4 3 1 2 5 4 2 3 3 1 1 1 1 2 1 1 1 2 1 1 1 2 2 1 2 3 1 1 1 1 2 1 0 1 1 2 4 5 6 6 6 6 5 2 3 4 2 3 3 1 0 2 3 4 6 4 0 2 5 3 6 4 2 4 8 2 5 6 6 5 7 8 9
14 15 14 13 13 11 10 9 7 5 5 5 5 7 6 5 2 2 5 4 1 3 2 1 2 2 3 3 2 2 2 1 1 1 2 1 2 2 2 2 1 1 1 2 3 3 3 2 3 3 4 4 4 5 6 5 5 6 4 3 3 2 2 1 0 1 1 3 5 2 2 1 2 1 7 7 2 6 11 4 3 6 7 7 9 9 10
15 15 15 14 14 13 12 10 9 7 6 5 6 8 7 6 4 2 3 4 1 2 1 1 4 5 5 4 2 2 2 3 3 1 1 1 1 2 2 1 1 1 2 3 3 3 2 2 2 2 3 3 3 3 4 4 3 4 5 4 2 3 2 2 2 1 2 2 3 2 2 1 3 4 7 6 3 6 9 5 0 5 7 7 9 11 12
15 15 16 15 16 15 14 13 11 8 8 7 6 7 6 7 6 2 2 5 3 1 2 1 3 5 6 4 2 3 3 4 3 2 1 1 1 2 2 1 1 1 2 3 2 2 1 1 2 3 2 2 1 1 1 2 2 3 4 5 5 4 3 3 2 1 3 3 2 3 1 3 1 4 7 6 3 6 7 5 2 5 10 10 11 12 13
15 15 16 16 16 16 15 13 11 9 8 7 6 6 6 7 7 4 2 5 4 1 1 2 3 3 4 4 2 3 2 3 2 3 4 4 2 2 2 1 1 1 2 2 1 2 2 1 0 1 1 1 0 1 0 1 2 3 5 7 9 8 4 4 4 2 3 3 1 1 3 4 1 7 10 7 8 10 6 2 2 6 11 12 12 12 13
15 16 16 16 16 15 14 13 11 10 9 8 6 7 8 8 8 6 4 4 4 2 0 3 3 2 1 2 3 3 1 1 2 2 2 3 2 2 2 1 0 1 2 2 2 2 3 1 1 1 2 2 1 1 1 2 2 4 6 7 8 7 5 5 5 3 3 2 1 2 2 2 5 10 9 8 10 8 4 2 4 7 11 10 9 11 12
15 16 16 16 15 14 13 12 11 10 9 8 6 7 8 8 8 6 4 5 4 3 1 5 2 0 2 0 2 2 1 2 2 1 2 2 1 1 2 2 2 0 1 2 3 2 2 2 1 2 1 3 2 2 1 3 2 4 5 4 5 4 3 3 4 3 3 2 1 3 1 2 7 11 9 9 9 3 4 4 7 10 11 8 8 11 11
15 15 15 15 14 14 13 12 11 10 9 8 6 6 8 9 7 5 4 4 4 2 2 5 3 2 2 2 2 2 2 2 2 1 2 3 2 1 1 0 1 1 1 2 2 1 2 2 1 2 1 3 2 3 2 3 2 2 3 3 3 3 3 3 3 2 3 1 1 4 1 2 8 12 8 7 5 2 3 6 7 10 10 8 9 11 10
14 15 15 14 14 14 13 13 12 10 9 9 7 8 10 9 8 6 5 5 5 4 2 4 4 4 4 3 1 1 2 2 2 2 2 2 4 2 4 2 2 2 3 3 2 1 2 1 2 1 2 1 1 3 3 3 2 2 2 2 2 1 1 3 3 1 2 2 3 2 2 2 9 10 6 5 5 2 5 7 6 7 8 8 9 9 8
13 14 15 14 14 13 12 13 12 10 9 9 8 10 12 12 11 10 6 8 8 4 1 2 4 5 6 5 4 2 2 2 1 0 1 3 4 3 3 1 2 2 1 1 1 1 1 0 2 1 1 1 2 3 3 3 2 2 2 4 2 2 2 1 3 0 2 2 2 1 1 3 8 7 3 4 4 3 4 5 6 6 6 7 7 8 8
12 14 14 14 14 13 12 12 11 10 9 8 8 11 13 14 14 11 8 14 16 10 5 6 7 8 8 7 6 4 4 3 1 0 0 2 3 2 3 1 2 1 1 1 1 1 1 1 1 2 2 2 3 3 2 3 1 3 3 4 2 1 1 2 3 1 1 2 2 1 0 2 4 4 4 4 5 5 5 5 5 6 5 5 6 8 10
10 13 13 13 14 14 12 11 11 10 9 8 8 11 12 13 13 10 11 18 19 12 7 8 6 6 6 6 6 4 3 2 1 1 0 1 3 2 3 2 1 1 1 2 2 1 0 0 1 3 2 1 2 3 4 3 1 1 3 3 1 1 4 1 1 3 4 1 1 2 3 6 7 4 4 6 8 7 6 5 5 6 6 5 7 8 10
9 12 13 13 14 14 13 11 9 9 8 8 7 9 11 10 8 7 8 11 9 5 3 3 2 2 3 4 4 4 5 4 2 1 1 2 1 2 2 1 1 2 2 1 0 1 1 0 1 3 3 1 2 3 3 2 2 2 2 3 2 3 5 4 2 4 4 0 1 4 7 11 9 4 4 8 8 6 5 5 6 6 7 8 10 11 13
8 11 12 12 13 14 13 11 9 7 7 6 5 5 7 6 4 3 4 5 4 4 3 3 3 3 4 4 3 5 7 5 3 2 2 2 0 1 1 3 2 1 3 4 2 3 3 2 3 4 3 2 2 2 2 1 1 2 3 2 3 4 4 4 3 4 3 4 3 6 9 10 6 3 5 8 6 4 5 7 8 8 10 12 13 14 15
8 10 10 11 12 13 12 11 8 6 6 5 5 5 6 6 4 3 2 4 5 5 4 2 2 3 3 4 5 6 7 6 6 5 5 4 2 1 1 4 4 3 5 4 2 4 4 3 4 3 2 1 2 3 2 2 1 2 3 2 2 3 2 2 3 4 4 5 5 8 8 6 2 5 8 7 5 5 6 9 11 11 12 13 14 15 15
9 9 10 10 11 12 12 10 7 6 6 7 7 7 7 7 6 5 4 4 3 3 3 2 1 2 3 6 7 8 7 8 8 6 6 5 4 3 4 6 5 2 2 2 3 3 4 4 3 3 1 1 3 3 3 2 3 3 3 1 2 2 2 2 3 3 3 4 5 7 6 5 4 8 9 6 6 7 8 9 11 12 12 13 13 14 16
9 9 10 10 10 11 11 10 7 4 6 8 9 11 13 13 11 8 6 4 3 4 3 3 2 2 2 4 9 10 9 8 7 6 5 5 5 5 7 7 5 2 3 3 3 3 4 3 2 1 1 1 3 3 3 3 4 3 2 2 2 1 1 2 3 3 5 6 5 5 5 6 7 9 8 6 7 9 8 8 10 12 14 15 14 14 14
9 9 9 9 10 10 10 9 6 3 5 5 5 8 12 15 14 13 11 9 11 11 6 3 3 2 1 3 7 8 8 8 8 7 6 5 4 5 6 6 4 3 3 4 4 4 3 3 2 1 1 1 2 3 2 2 3 2 1 2 2 2 3 2 2 3 5 6 5 4 4 6 8 9 7 6 10 10 8 9 13 14 15 18 18 15 14
9 9 8 8 9 11 11 11 7 2 2 2 1 3 6 9 10 11 10 9 9 8 5 3 3 1 1 2 5 7 7 6 6 7 7 8 8 8 8 8 7 5 4 3 3 4 2 2 2 2 3 1 3 3 2 2 2 1 2 1 3 3 3 2 2 2 4 3 4 5 6 6 8 10 7 8 13 13 10 12 15 16 17 19 18 17 17
7 7 7 8 10 13 15 16 13 8 3 2 1 2 3 3 3 4 5 5 5 6 5 4 2 1 1 1 3 7 7 5 4 6 7 7 8 9 8 7 7 6 4 2 2 3 2 2 3 2 4 4 4 3 2 3 3 2 2 1 3 3 2 1 2 3 3 4 5 7 6 5 7 9 7 8 13 15 15 16 17 17 18 19 18 17 18
6 5 6 7 8 12 16 18 17 16 15 14 10 7 3 1 3 4 3 3 4 4 5 4 2 1 1 1 2 6 7 4 2 4 5 5 5 6 6 6 5 6 5 3 2 3 2 1 2 2 3 4 4 3 3 4 2 3 1 2 3 3 1 2 3 3 4 7 8 6 5 5 6 6 7 10 14 18 18 17 17 18 19 19 17 17 17
5 4 5 6 5 8 12 15 16 18 22 22 20 15 10 6 4 3 3 4 5 4 4 3 3 1 1 1 1 6 7 3 2 3 3 3 3 3 3 3 3 5 6 4 2 1 1 2 2 2 3 3 3 4 3 2 3 3 0 2 3 2 1 3 3 2 4 7 7 5 6 7 7 7 10 13 16 18 18 17 17 18 18 16 16 17 17
4 4 5 5 4 5 7 10 12 15 17 18 18 19 20 17 12 7 3 2 4 6 5 4 3 1 2 1 1 5 6 3 2 2 2 3 4 2 1 3 3 3 4 3 2 2 2 1 2 2 2 3 3 3 1 2 3 2 1 3 3 1 2 3 2 2 4 7 7 7 9 9 9 10 11 13 15 17 16 15 16 16 13 11 13 16 17
4 5 5 5 5 5 5 6 7 8 10 11 11 14 20 22 22 20 14 7 4 3 3 4 4 2 4 3 2 5 6 3 1 0 0 2 3 2 1 2 3 2 1 2 2 2 2 1 2 1 1 2 3 1 2 3 2 1 2 3 2 1 2 3 2 3 5 8 9 10 9 8 9 7 7 10 14 15 14 14 15 14 9 8 13 16 16
5 5 7 8 7 6 5 4 4 4 4 6 7 9 12 14 17 22 23 20 15 7 2 2 4 2 2 1 2 5 7 4 1 1 1 1 2 2 2 3 2 1 1 3 3 2 1 1 2 2 1 1 1 2 3 3 2 1 3 3 1 1 1 2 3 5 7 8 8 8 5 6 6 5 6 9 12 13 12 12 13 11 8 8 12 15 16
5 7 7 6 5 4 3 4 4 3 4 5 4 5 6 5 6 10 14 17 17 11 6 4 2 1 1 1 2 5 6 3 1 3 3 1 1 2 2 3 1 1 2 4 2 1 1 2 3 2 0 1 2 2 2 4 3 1 3 2 1 2 2 3 4 6 6 6 6 6 5 5 5 5 6 8 10 10 10 10 11 11 10 11 14 16 17
7 6 5 3 2 2 2 2 2 4 4 3 1 3 4 3 4 5 5 6 7 7 6 5 2 2 2 1 1 5 5 2 2 4 2 1 1 2 2 2 1 1 2 2 2 1 2 3 3 2 1 1 2 2 2 3 2 2 1 1 2 2 3 3 5 5 5 5 6 6 5 5 5 6 6 8 9 10 10 11 13 13 14 14 16 18 19
5 4 3 3 3 1 0 1 3 4 2 1 2 3 3 4 4 3 3 3 3 3 4 4 1 1 2 2 2 4 4 3 2 4 3 1 1 1 1 0 0 2 2 2 2 1 2 2 1 1 1 2 2 2 2 3 2 2 2 4 4 3 3 4 5 5 5 5 5 6 6 5 6 7 7 8 10 10 11 13 14 14 15 16 18 19 19
3 3 2 2 2 2 2 2 2 1 1 3 4 3 2 3 3 1 1 3 3 2 2 2 0 0 2 2 1 3 4 3 1 0 1 1 1 0 1 0 0 2 2 1 2 1 1 0 1 1 2 3 2 2 2 2 2 0 4 6 5 4 4 5 6 7 6 4 5 7 8 10 11 10 8 10 11 11 12 13 14 15 16 18 18 18 18
1 2 2 3 4 4 4 3 2 1 1 2 3 3 2 2 2 1 2 3 3 2 1 2 3 3 3 2 0 2 3 3 1 2 1 1 1 1 1 1 0 2 1 2 2 2 2 1 1 2 3 2 3 3 2 1 2 1 5 6 5 5 5 6 8 8 5 4 6 7 10 14 15 13 11 11 12 12 12 13 15 16 18 18 18 19 20
5 6 6 7 6 4 3 4 5 4 2 2 2 2 1 1 2 2 2 1 0 2 1 2 2 3 4 1 0 2 1 2 1 2 1 1 1 1 1 1 1 2 0 2 0 2 2 1 2 4 2 2 3 2 1 2 3 1 5 5 5 6 6 8 9 7 5 6 7 8 12 15 16 13 12 12 13 14 14 15 17 18 18 18 19 21 21
8 7 6 5 3 3 3 4 4 3 3 3 3 2 3 3 2 1 1 1 0 1 2 2 2 3 3 1 1 2 2 1 0 1 1 1 1 1 2 2 2 1 1 0 2 3 0 2 3 4 2 3 3 2 2 3 3 2 6 6 5 6 7 9 8 4 6 7 8 11 15 16 14 13 13 13 14 16 17 18 19 19 18 18 20 22 23
4 2 2 2 2 3 3 2 2 3 3 2 2 2 2 3 2 1 2 2 1 1 2 1 2 3 2 1 0 1 1 1 1 1 0 1 1 2 2 1 1 1 1 1 2 0 2 3 3 2 3 3 2 1 1 3 2 3 4 4 5 6 8 9 6 4 5 7 10 13 16 15 13 13 15 15 15 16 18 19 19 18 18 19 21 23 23
0 2 3 3 3 3 2 2 2 3 2 1 1 3 2 2 3 3 3 1 1 1 3 2 2 0 3 3 0 0 1 1 1 0 0 1 2 2 0 1 1 1 2 1 1 1 2 3 2 2 3 2 1 1 3 3 1 4 3 2 5 6 7 7 5 4 5 7 10 14 15 13 12 13 16 16 15 16 18 18 18 18 19 20 21 23 24
2 1 3 3 2 2 1 2 2 1 1 1 2 4 4 4 5 4 2 0 1 1 3 2 1 0 2 3 1 0 0 1 1 0 0 2 2 1 1 1 1 3 3 2 2 2 3 4 3 2 2 2 1 3 4 2 2 4 3 2 3 5 6 6 4 3 4 6 10 13 13 11 10 12 15 16 16 17 18 18 18 19 20 21 21 22 24
3 1 3 3 1 2 2 1 1 1 1 2 4 5 5 4 3 2 0 1 1 2 3 2 1 1 2 1 0 1 1 1 1 1 0 2 1 1 1 2 1 0 1 1 3 4 4 3 2 3 3 2 2 3 4 1 3 5 4 3 3 4 6 6 5 3 3 7 11 12 11 10 10 12 14 16 17 18 19 20 20 20 20 20 20 22 24
2 1 2 2 1 1 1 1 1 0 0 1 2 3 2 1 0 1 1 1 1 0 1 1 1 1 2 1 0 1 2 1 1 1 0 2 1 1 3 3 2 2 1 3 4 4 3 3 3 4 4 3 3 4 4 1 3 4 4 4 4 3 5 6 6 3 3 8 11 11 10 10 10 10 12 14 17 19 20 20 20 20 19 19 21 23 24
6 3 3 2 2 1 1 2 3 0 2 3 2 1 0 1 2 4 3 1 0 1 2 1 1 0 2 1 1 0 1 1 0 1 2 2 1 0 1 0 2 3 3 4 4 3 3 3 4 4 4 4 3 4 3 2 3 2 3 4 2 2 4 6 6 4 5 9 11 11 9 9 9 10 11 13 17 20 20 19 19 20 21 21 22 24 24
7 4 2 2 2 1 1 2 2 1 5 5 3 2 2 2 2 3 3 2 1 1 1 1 1 0 1 1 2 1 1 1 1 1 1 1 1 1 1 1 3 4 4 4 3 3 3 4 4 4 4 5 4 4 3 3 2 1 3 2 1 3 5 6 6 5 7 10 11 10 9 8 8 10 11 13 16 18 19 18 19 21 23 24 24 24 24
4 4 1 0 2 3 2 2 2 3 4 3 3 3 2 2 2 3 3 3 2 3 2 0 0 1 2 2 1 0 1 0 2 1 1 2 2 3 2 3 5 5 3 3 3 4 4 4 4 4 4 4 3 3 3 2 1 2 1 1 2 5 7 6 6 6 9 11 11 9 8 8 8 10 11 12 15 17 18 19 21 22 23 24 24 23 23
2 2 1 1 1 2 3 2 2 2 3 3 3 2 2 2 3 4 3 3 3 2 0 1 1 2 1 1 1 0 1 1 1 1 2 2 2 3 4 5 5 4 4 3 3 4 4 5 5 5 4 4 4 4 3 3 2 2 2 2 5 7 7 6 6 7 9 11 10 9 8 7 8 10 12 14 15 16 17 20 22 22 23 23 23 22 21
Wind_Direction
349 351 353 350 349 351 351 354 353 351 358 5 4 9 55 71 230 286 356 354 349 75 45 331 13 54 262 301 72 338 52 53 325 343 18 20 3 14 20 105 59 243 222 358 346 326 299 305 340 334 219 213 237 304 350 337 334 57 334 337 349 359 87 29 293 291 315 314 310 312 321 96 80 21 8 67 77 84 146 184 184 145 293 290 137 227 177
349 350 350 349 350 351 350 352 351 354 2 6 8 25 118 303 243 271 2 0 19 97 77 314 345 316 288 30 358 336 55 75 12 3 350 339 78 51 334 319 28 265 181 130 244 253 340 2 6 75 240 23 294 319 342 355 23 39 345 327 349 327 93 49 356 344 348 349 350 336 335 29 67 24 11 47 63 47 44 64 71 94 275 339 177 234 198
350 349 350 352 353 351 350 350 351 357 3 6 11 34 162 11 329 278 358 20 48 107 158 149 146 302 49 46 346 346 13 325 172 158 287 269 143 141 282 302 349 276 311 19 274 264 192 258 345 32 331 323 15 324 332 3 94 357 283 270 332 275 214 95 92 67 313 305 293 289 310 347 15 40 19 34 63 51 34 45 63 130 285 352 185 235 286
351 351 353 355 353 353 354 354 355 358 1 5 14 40 83 55 26 312 337 18 48 67 103 100 109 119 81 46 347 29 354 290 233 134 340 310 114 133 279 329 31 359 22 11 304 295 243 242 15 32 320 301 316 304 328 351 196 284 303 267 104 81 323 102 143 184 211 229 244 247 40 350 333 6 6 12 41 45 74 87 64 199 288 321 249 277 325
352 353 355 354 353 355 357 358 359 360 0 2 12 49 67 71 86 7 334 344 22 26 11 40 64 110 118 109 335 359 346 314 337 69 185 268 75 77 298 35 38 346 13 14 301 298 334 19 47 15 286 287 301 307 332 330 277 311 312 215 107 75 338 318 164 220 230 234 255 291 31 25 41 53 27 17 23 36 71 78 14 24 46 292 294 339 337
354 354 354 352 352 353 356 358 359 0 359 358 7 36 40 58 144 161 131 312 359 8 354 27 43 23 75 125 43 359 21 14 350 299 303 355 39 61 19 15 9 297 286 55 308 319 347 4 358 334 312 319 340 356 345 319 321 42 3 336 99 101 255 248 213 270 270 269 279 303 83 77 65 62 51 48 47 46 59 60 22 44 38 262 299 333 328
354 353 351 349 350 351 355 358 357 360 359 2 34 57 14 61 88 291 23 111 194 227 322 41 52 25 35 92 50 37 69 23 285 284 21 1 341 62 86 327 326 314 319 108 183 307 350 334 291 297 345 322 348 14 333 300 353 59 18 340 96 115 260 248 221 288 293 298 316 70 106 92 56 47 47 56 58 51 47 11 355 14 315 278 321 329 320
352 351 350 349 351 351 355 358 356 2 7 19 61 66 27 81 140 258 37 40 208 182 5 58 67 30 29 62 351 64 102 269 288 331 65 359 318 16 61 288 299 298 296 106 149 232 175 212 250 209 39 327 350 55 274 288 338 14 40 327 336 83 293 289 64 341 306 330 41 76 99 94 68 41 31 41 41 33 23 355 355 5 324 315 349 339 313
351 353 353 353 354 353 354 359 358 5 23 51 73 58 52 107 176 156 96 36 323 12 355 80 87 29 2 48 261 335 358 244 252 313 96 148 250 343 274 287 308 326 24 99 177 229 176 182 221 192 175 264 266 251 215 204 329 342 24 336 351 52 317 334 46 28 300 352 81 93 100 91 72 36 19 35 41 23 349 341 12 9 321 331 4 2 328
358 359 359 357 357 356 356 1 6 12 28 59 81 59 44 70 298 102 101 91 325 18 359 33 78 72 282 206 250 308 277 268 69 75 345 54 118 196 190 241 329 2 18 83 199 214 189 190 220 216 212 239 230 232 130 107 114 288 44 355 2 79 47 337 36 26 286 304 101 125 116 81 43 9 357 24 57 24 337 353 45 26 357 4 4 339 320
4 3 3 1 2 4 6 10 15 23 36 57 84 84 40 38 349 22 74 70 335 15 41 28 52 96 257 318 321 352 347 346 24 95 213 343 300 209 147 101 42 334 266 243 156 181 208 219 237 260 9 46 55 68 57 47 57 154 130 69 346 54 78 265 317 86 274 302 357 95 114 277 236 27 2 353 82 34 353 3 69 45 47 47 333 320 333
10 8 9 10 11 12 15 20 25 42 60 63 78 79 38 19 20 66 87 99 323 3 58 43 326 241 316 349 327 266 301 325 334 140 168 270 285 335 69 87 70 310 279 33 53 66 226 249 7 23 42 51 53 54 50 35 10 1 102 111 56 25 33 288 259 121 250 316 19 43 355 232 188 139 26 359 153 37 4 55 109 50 30 17 350 341 344
17 18 20 20 23 23 24 32 42 61 75 66 66 69 45 21 43 86 99 109 356 360 75 102 332 332 326 348 345 257 254 329 350 91 124 217 274 331 11 106 141 203 124 86 68 79 92 72 59 43 24 30 39 33 26 19 2 359 24 81 94 61 16 321 355 75 323 10 22 1 203 152 173 98 13 4 359 6 1 11 97 39 15 3 350 341 344
26 27 30 30 34 37 38 47 57 64 70 62 57 63 48 29 48 84 104 102 76 325 108 99 352 352 332 321 327 319 340 6 360 8 114 182 242 263 270 211 159 150 111 99 77 76 104 97 57 26 354 9 24 6 354 354 3 13 2 356 52 96 70 20 16 32 75 45 328 301 171 86 18 7 353 355 14 353 334 304 237 36 17 359 350 345 348
32 34 38 40 42 46 48 54 60 61 61 56 53 59 49 35 41 47 110 114 125 344 36 33 312 328 322 308 349 28 1 347 344 324 308 314 256 256 265 201 145 78 76 91 87 61 80 94 37 360 342 6 4 287 346 350 337 9 6 359 25 51 59 67 60 32 65 64 357 5 263 245 344 352 321 320 313 301 294 255 238 9 6 2 1 355 349
40 41 43 44 45 47 49 51 54 53 49 45 45 51 46 35 30 26 65 102 119 134 17 319 268 281 299 293 343 49 22 329 341 350 339 335 310 285 284 170 142 87 65 67 88 79 57 74 167 308 272 242 261 282 5 40 345 351 10 24 30 27 31 71 77 41 33 58 50 332 244 214 2 334 317 314 298 294 298 235 239 5 11 9 8 356 345
46 46 45 46 45 45 46 46 46 47 43 42 48 51 49 42 30 29 61 81 87 120 349 314 271 248 334 317 333 18 27 326 7 35 334 308 292 304 320 351 37 145 110 49 24 61 53 21 20 25 298 258 95 50 351 66 45 344 346 9 23 20 15 41 53 21 357 46 66 288 225 152 360 330 315 304 294 305 8 324 291 9 21 17 9 349 339
50 47 45 45 43 43 44 43 43 45 42 41 48 54 54 46 28 31 78 92 91 116 342 336 322 56 49 356 277 310 337 349 2 2 298 306 311 306 305 327 8 344 156 57 31 48 48 4 33 79 288 292 40 78 28 39 38 335 336 3 21 11 356 33 58 24 354 41 9 304 229 104 349 329 317 312 305 336 52 321 311 352 2 7 8 346 338
51 47 43 41 41 40 41 41 41 42 40 38 45 56 53 42 27 37 87 89 78 97 340 343 4 18 342 276 243 284 318 6 7 7 359 343 317 254 243 219 40 346 330 32 37 67 62 353 316 112 98 323 10 90 59 33 29 334 351 23 28 7 345 2 43 11 344 359 326 312 264 72 355 331 320 343 355 9 346 323 329 344 343 351 359 344 339
51 44 40 37 37 37 36 38 39 40 43 47 58 65 57 44 32 39 78 109 105 95 35 11 36 41 14 24 72 345 336 10 31 86 105 275 285 14 42 344 313 351 15 23 13 33 72 357 309 56 90 336 37 102 97 65 46 12 57 80 40 24 9 336 329 330 348 357 5 339 266 343 356 339 331 30 41 335 313 326 334 343 345 348 346 340 339
47 40 37 36 36 35 33 35 36 39 48 54 64 70 63 55 50 47 70 114 115 108 50 35 60 67 56 54 67 58 41 48 33 72 177 261 288 32 65 287 308 3 25 37 2 319 48 334 297 16 59 355 34 81 127 114 31 349 93 102 47 50 90 324 294 344 65 351 343 359 246 322 353 357 22 48 24 329 333 340 335 345 353 343 333 334 338
42 37 37 36 35 33 32 35 36 41 52 58 69 78 75 71 69 65 77 90 88 89 113 108 90 83 76 62 57 60 59 58 50 254 278 297 315 33 82 74 46 23 280 82 73 321 341 9 44 68 56 22 38 58 102 109 47 324 16 63 61 29 52 221 229 297 340 223 241 350 325 319 354 24 70 47 3 358 16 7 340 340 341 334 335 336 337
36 33 33 33 32 30 29 33 37 44 59 68 75 82 87 88 85 80 87 91 88 89 111 113 97 80 64 46 44 45 26 32 75 162 108 344 340 23 58 61 45 316 306 79 116 184 237 51 116 104 84 52 71 68 53 62 106 322 8 25 137 359 352 334 193 331 327 229 181 347 336 340 354 29 63 26 8 9 19 13 349 337 334 342 351 345 340
28 26 27 28 28 27 27 31 37 46 62 77 82 78 79 86 88 79 85 97 101 98 88 81 68 45 7 359 23 17 354 12 61 61 2 12 19 48 42 346 348 8 344 326 239 155 116 328 74 90 86 71 87 88 71 63 96 103 49 2 329 1 16 29 27 342 335 292 81 20 354 339 341 7 30 13 12 17 18 3 339 334 347 356 355 350 342
19 19 22 23 23 24 25 28 33 44 60 75 81 65 57 64 71 61 66 90 115 119 90 39 4 354 332 332 9 2 349 11 63 55 2 355 228 130 334 315 316 277 276 292 336 57 64 36 52 81 94 88 83 86 88 98 110 97 83 41 327 336 26 35 2 331 302 270 317 5 344 317 319 29 19 4 10 14 2 347 337 347 1 357 350 348 341
17 16 19 21 21 21 22 24 32 47 60 69 65 50 44 45 36 19 51 91 99 99 96 72 340 346 6 18 13 356 360 39 67 55 31 29 53 124 314 323 319 266 264 291 19 76 85 66 60 77 79 56 86 98 81 74 80 69 77 78 318 326 17 8 316 303 284 278 321 357 336 297 320 24 4 356 5 357 346 348 353 360 358 347 343 345 340
18 17 18 18 17 15 14 17 29 50 70 77 71 57 49 45 40 43 68 87 81 60 81 119 267 316 50 52 30 19 34 60 66 51 28 24 30 17 325 319 319 300 305 355 30 57 72 66 57 74 93 45 67 93 93 84 93 83 70 41 345 352 17 353 327 312 297 305 340 357 336 296 312 346 348 353 0 351 349 359 3 357 348 342 340 339 336
17 18 18 16 15 13 10 11 24 64 96 91 78 65 57 53 54 55 49 58 99 112 116 140 160 151 100 42 24 29 44 53 51 37 9 353 350 331 313 311 316 349 37 54 55 46 59 77 73 67 105 60 59 79 85 67 66 67 40 353 6 2 288 319 327 296 294 317 341 352 329 298 310 332 339 346 359 1 3 5 357 347 345 348 343 334 333
15 17 19 19 21 19 14 13 25 91 125 112 86 71 63 59 63 68 65 78 101 106 102 102 98 93 72 348 3 19 34 36 35 31 20 14 9 351 344 353 9 41 63 78 88 76 68 89 103 76 339 110 118 116 94 61 59 62 288 301 340 313 277 295 319 291 299 323 348 352 325 305 315 325 327 353 14 17 9 356 351 349 348 348 342 334 333
15 21 28 35 37 35 31 29 31 57 156 171 148 74 60 55 62 70 69 75 95 103 102 103 93 65 282 313 355 4 10 20 30 30 28 30 28 23 24 30 33 44 61 66 77 92 90 52 46 1 322 5 110 122 105 92 111 158 229 283 335 323 307 334 13 323 307 321 343 339 323 311 317 320 326 7 21 17 3 351 350 349 348 345 339 335 334
20 33 50 62 62 55 50 47 45 48 68 119 109 73 65 34 16 33 46 54 76 95 97 94 90 52 334 340 358 359 355 353 10 19 18 20 22 27 41 49 36 35 59 75 57 74 90 42 26 353 335 18 74 109 114 104 125 224 254 359 347 316 300 341 344 327 333 349 345 330 317 315 324 324 332 8 17 9 357 349 347 347 345 342 337 333 331
33 52 80 94 83 66 60 58 58 62 69 73 74 80 103 84 7 24 54 61 69 93 98 89 82 50 354 314 346 2 358 342 349 14 13 14 17 23 41 60 54 43 57 82 73 57 72 88 71 23 346 21 67 86 84 99 153 220 241 7 328 294 278 335 326 337 9 8 357 337 317 320 333 338 347 4 8 1 351 344 344 346 343 337 334 331 328
44 70 103 121 109 77 68 67 68 70 71 71 70 69 71 65 40 42 69 63 53 65 84 92 90 54 323 231 325 0 4 354 346 16 19 6 4 10 18 39 55 41 33 46 90 96 72 100 90 42 353 19 76 86 79 119 188 200 78 343 294 270 299 322 322 355 13 4 358 336 306 311 333 355 3 5 0 351 343 340 343 343 339 335 333 332 330
61 89 106 124 128 105 87 79 76 74 72 70 67 63 62 61 55 47 55 82 70 59 49 63 93 31 346 359 354 360 10 13 348 11 15 345 355 24 7 354 22 36 22 29 71 62 16 57 90 58 345 8 55 76 103 198 191 156 26 322 293 297 319 314 327 7 353 347 339 313 304 321 349 4 6 1 351 341 338 342 344 341 337 335 333 332 333
81 97 108 119 118 115 113 100 81 68 66 70 74 70 67 65 60 57 57 60 66 58 27 41 77 60 6 6 328 334 359 11 316 323 320 318 349 54 111 25 25 23 348 25 63 50 11 56 97 78 347 5 36 72 203 207 187 86 345 307 297 352 329 312 329 339 333 336 327 311 318 353 11 9 359 348 340 338 341 344 342 339 334 331 331 332 334
94 103 112 117 113 109 111 96 61 41 65 91 91 77 71 70 65 62 62 61 63 76 104 56 63 58 23 359 286 325 355 5 297 319 359 352 354 20 79 74 56 299 320 46 54 31 347 22 86 69 16 359 205 213 195 168 157 338 319 293 269 50 2 326 335 332 327 329 320 309 330 20 24 5 349 338 333 337 341 340 338 338 333 328 332 334 334
103 112 119 120 109 89 71 48 36 58 116 125 98 59 59 76 71 59 56 55 55 59 75 82 67 8 358 201 270 331 353 353 328 355 5 358 324 340 53 81 76 279 15 33 26 241 334 20 77 95 23 229 191 187 146 126 126 310 306 279 175 81 50 4 348 336 324 322 317 314 342 18 15 351 341 334 332 339 344 339 338 339 335 332 333 333 331
108 115 115 102 76 61 34 13 45 101 128 146 48 24 28 40 50 40 33 39 41 42 57 78 63 331 8 86 312 339 349 334 357 13 5 232 310 351 35 81 102 118 50 353 281 223 31 21 67 103 246 234 152 138 131 114 85 335 301 143 113 81 57 19 4 354 332 323 330 340 356 4 353 344 343 337 335 339 340 336 336 336 333 331 331 328 327
106 107 81 58 61 78 100 96 103 111 108 10 17 37 23 21 36 27 354 13 28 15 28 58 66 2 39 37 328 343 15 34 16 4 353 327 350 4 17 25 37 77 65 335 296 45 33 345 20 50 282 240 177 141 125 92 39 350 146 130 107 82 66 38 18 360 325 318 349 21 34 18 351 343 343 337 333 334 335 333 333 333 331 329 327 326 327
94 79 60 58 75 96 110 120 126 129 5 13 31 50 32 23 39 54 352 24 31 353 355 49 67 305 60 64 310 324 18 43 59 325 334 299 255 116 78 20 64 76 66 299 291 60 68 289 4 349 268 229 176 132 115 79 5 357 133 119 94 73 63 38 9 343 326 342 31 40 29 11 357 348 340 334 332 332 332 332 331 329 328 328 326 326 327
66 63 81 110 117 107 93 76 39 12 38 44 37 41 39 18 8 28 51 41 18 309 302 49 27 336 352 48 67 294 343 8 100 138 112 296 279 88 75 276 268 82 83 265 270 77 79 62 304 271 251 195 139 136 130 27 348 67 116 106 79 64 51 23 0 348 355 44 56 32 8 359 352 346 339 335 333 331 330 330 331 330 330 329 327 326 327
97 102 108 113 113 103 73 44 31 29 41 48 32 30 33 9 4 17 31 47 350 285 300 42 28 298 287 303 198 212 258 335 19 96 91 299 291 104 118 280 26 62 208 249 301 61 57 12 290 269 246 158 144 144 85 360 335 87 112 94 68 59 43 12 356 0 45 70 56 23 5 355 345 339 338 338 336 333 333 334 334 333 332 330 328 327 329
107 109 107 100 82 46 26 23 25 32 39 40 39 28 360 353 14 20 318 297 349 350 311 326 342 324 305 300 222 223 242 295 357 110 116 278 297 56 51 31 37 66 228 251 49 52 67 237 249 246 206 150 148 130 43 336 302 133 108 85 61 53 32 6 355 19 60 54 30 10 1 351 338 331 333 336 337 335 334 335 337 336 333 331 329 329 330
113 89 69 62 27 20 20 1 3 37 47 31 42 64 10 339 333 306 296 301 337 341 312 340 15 349 305 281 356 308 275 263 113 101 357 322 20 56 53 34 242 250 331 33 39 21 239 242 242 212 159 144 152 138 334 305 273 143 109 70 46 39 19 2 3 39 46 22 5 359 354 345 332 326 329 334 339 337 333 334 338 338 335 332 330 330 332
216 4 37 39 4 357 23 11 1 41 63 23 192 155 163 243 250 242 249 236 160 341 333 10 64 5 268 266 320 92 248 309 35 50 289 9 34 42 94 223 245 31 48 32 347 323 287 271 254 179 152 168 198 322 321 304 196 146 125 53 35 27 10 2 17 51 41 14 0 355 349 339 329 326 328 331 337 337 334 334 338 337 335 334 333 332 334
96 76 77 73 9 337 56 61 10 24 140 210 207 179 182 206 217 222 236 105 106 310 302 300 112 138 278 287 316 108 237 31 31 286 173 73 55 287 231 176 50 40 39 9 321 286 259 251 230 178 173 203 261 309 311 299 136 121 97 54 30 15 3 358 13 45 36 6 354 349 342 333 328 327 326 328 333 336 337 338 339 338 337 336 334 333 335
82 52 77 87 45 358 40 91 221 201 169 191 204 199 198 208 216 220 240 121 186 252 282 280 182 215 256 269 338 307 310 57 58 297 347 89 110 280 356 56 68 94 53 322 272 255 247 241 210 183 198 223 260 292 299 286 125 108 75 37 14 11 5 354 355 22 17 348 344 343 337 329 327 326 324 326 330 335 338 339 341 342 342 339 336 336 338
96 52 69 98 124 336 15 128 139 106 39 225 223 215 197 164 201 269 269 226 182 226 326 11 48 303 285 299 92 273 296 24 47 297 334 96 101 340 15 26 324 274 202 199 224 238 236 216 197 200 213 221 242 273 283 243 135 107 57 15 2 21 16 353 342 346 344 338 340 339 332 325 327 327 325 326 329 333 338 341 341 343 344 343 341 342 343
77 79 75 95 131 178 196 125 110 92 294 301 313 303 192 167 235 251 249 232 115 205 207 176 129 153 274 295 69 50 316 352 44 330 10 45 59 115 104 51 308 297 257 219 215 221 220 203 192 203 222 228 247 272 269 184 141 98 26 360 349 20 8 343 322 303 316 332 338 335 328 325 328 329 329 329 329 331 336 341 343 345 346 346 346 346 346
58 70 76 78 94 119 193 115 105 281 292 304 308 273 209 181 239 250 221 173 140 44 53 91 108 184 269 358 47 25 301 266 128 78 31 19 177 153 120 222 237 237 239 232 211 199 205 194 179 199 234 246 261 271 248 184 151 23 356 348 331 345 343 327 300 289 313 330 336 334 331 335 339 337 334 331 328 329 335 343 348 347 346 346 348 348 346
47 61 65 198 133 142 159 149 155 214 244 244 234 225 194 163 207 228 201 157 99 57 53 126 198 45 34 30 38 280 260 289 75 69 282 239 181 141 157 238 234 220 217 224 201 185 191 188 179 194 232 257 269 263 233 198 210 325 323 277 308 328 328 310 286 292 315 329 335 338 342 349 350 342 334 332 334 336 340 345 348 347 344 343 346 347 344
58 74 57 324 105 126 132 132 155 198 215 210 204 195 163 166 203 202 168 131 105 84 212 212 94 68 47 274 232 162 54 30 23 322 239 228 190 166 186 219 229 205 184 193 198 191 189 189 188 199 228 256 266 260 240 229 256 284 265 273 308 322 315 290 277 296 318 328 335 342 348 352 349 342 337 339 343 343 339 337 339 340 338 337 341 344 343